| time (UTC) | temp F | wind direction | speed MPH | gust MPH | rain 1hr in | rain 24hr in | rain mn in | humidity % | barometer mb |
| 20260504230057 | 79 | 136 | 3.0 | 9.0 | 0.00 | 0.00 | 0.00 | 62 | 1003.0 |
| 20260504224554 | 79 | 126 | 2.0 | 8.0 | 0.00 | 0.00 | 0.00 | 62 | 1002.9 |
| 20260504223058 | 79 | 159 | 2.0 | 7.0 | 0.00 | 0.00 | 0.00 | 60 | 1003.2 |
| 20260504221643 | 79 | 136 | 2.0 | 10.0 | 0.00 | 0.00 | 0.00 | 60 | 1003.2 |
| 20260504220057 | 79 | 105 | 4.0 | 17.0 | 0.00 | 0.00 | 0.00 | 59 | 1003.3 |
| 20260504214551 | 79 | 136 | 4.0 | 11.0 | 0.00 | 0.00 | 0.00 | 58 | 1003.5 |
| 20260504213100 | 80 | 143 | 3.0 | 13.0 | 0.00 | 0.00 | 0.00 | 57 | 1003.6 |
| 20260504211558 | 80 | 136 | 3.0 | 10.0 | 0.00 | 0.00 | 0.00 | 56 | 1003.9 |
| 20260504210054 | 80 | 167 | 4.0 | 11.0 | 0.00 | 0.00 | 0.00 | 55 | 1003.9 |
| 20260504204559 | 81 | 121 | 4.0 | 12.0 | 0.00 | 0.00 | 0.00 | 55 | 1004.3 |
| 20260504203101 | 81 | 167 | 4.0 | 13.0 | 0.00 | 0.00 | 0.00 | 55 | 1004.3 |
| 20260504201611 | 81 | 109 | 4.0 | 11.0 | 0.00 | 0.00 | 0.00 | 53 | 1004.5 |
| 20260504200055 | 81 | 44 | 4.0 | 10.0 | 0.00 | 0.00 | 0.00 | 53 | 1004.9 |
| 20260504194604 | 81 | 110 | 4.0 | 16.0 | 0.00 | 0.00 | 0.00 | 55 | 1005.2 |
| 20260504193050 | 80 | 186 | 1.0 | 0.0 | 0.00 | 0.00 | 0.00 | 55 | 1005.4 |
| 20260504191613 | 80 | 132 | 3.0 | 11.0 | 0.00 | 0.00 | 0.00 | 53 | 1005.5 |
| 20260504190053 | 80 | 207 | 2.0 | 9.0 | 0.00 | 0.00 | 0.00 | 54 | 1005.8 |
| 20260504184605 | 79 | 132 | 5.0 | 13.0 | 0.00 | 0.00 | 0.00 | 54 | 1005.9 |
| 20260504183050 | 79 | 132 | 3.0 | 10.0 | 0.00 | 0.00 | 0.00 | 54 | 1006.0 |
| 20260504181552 | 79 | 195 | 5.0 | 14.0 | 0.00 | 0.00 | 0.00 | 52 | 1006.3 |
| 20260504180058 | 79 | 136 | 3.0 | 15.0 | 0.00 | 0.00 | 0.00 | 53 | 1006.6 |
| 20260504174552 | 78 | 194 | 6.0 | 13.0 | 0.00 | 0.00 | 0.00 | 52 | 1006.9 |
| 20260504173054 | 78 | 136 | 4.0 | 12.0 | 0.00 | 0.00 | 0.00 | 52 | 1007.0 |
| 20260504171553 | 77 | 132 | 5.0 | 12.0 | 0.00 | 0.00 | 0.00 | 53 | 1007.1 |
| 20260504140103 | 67 | 263 | 3.0 | 12.0 | 0.00 | 0.00 | 0.00 | 62 | 1008.5 |
| 20260504081552 | 65 | 0 | 2.0 | 7.0 | 0.00 | 0.00 | 0.00 | 55 | 1010.0 |
| 20260504060108 | 69 | 108 | 2.0 | 12.0 | 0.00 | 0.00 | 0.00 | 48 | 1011.5 |
| 20260504050122 | 69 | 132 | 1.0 | 7.0 | 0.00 | 0.00 | 0.00 | 47 | 1011.9 |
| 20260504044556 | 70 | 132 | 2.0 | 10.0 | 0.00 | 0.00 | 0.00 | 46 | 1011.9 |
| 20260504043057 | 70 | 132 | 2.0 | 8.0 | 0.00 | 0.00 | 0.00 | 46 | 1011.9 |
| 20260504041549 | 70 | 136 | 3.0 | 8.0 | 0.00 | 0.00 | 0.00 | 45 | 1011.9 |
| 20260504034606 | 71 | 142 | 1.0 | 6.0 | 0.00 | 0.00 | 0.00 | 45 | 1012.2 |
| 20260504033059 | 71 | 136 | 2.0 | 7.0 | 0.00 | 0.00 | 0.00 | 44 | 1012.2 |
| 20260504031605 | 71 | 136 | 2.0 | 6.0 | 0.00 | 0.00 | 0.00 | 44 | 1012.3 |
| 20260504030114 | 72 | 176 | 2.0 | 7.0 | 0.00 | 0.00 | 0.00 | 43 | 1012.3 |
| 20260504024553 | 72 | 158 | 2.0 | 8.0 | 0.00 | 0.00 | 0.00 | 43 | 1012.1 |
| 20260504023057 | 72 | 159 | 2.0 | 5.0 | 0.00 | 0.00 | 0.00 | 42 | 1012.1 |
| 20260504021603 | 73 | 136 | 1.0 | 5.0 | 0.00 | 0.00 | 0.00 | 41 | 1011.9 |
| 20260504020057 | 73 | 142 | 2.0 | 7.0 | 0.00 | 0.00 | 0.00 | 40 | 1011.9 |
| 20260504014556 | 74 | 132 | 1.0 | 4.0 | 0.00 | 0.00 | 0.00 | 39 | 1011.7 |
| 20260504013050 | 75 | 142 | 1.0 | 6.0 | 0.00 | 0.00 | 0.00 | 37 | 1011.7 |
| 20260504011555 | 76 | 169 | 2.0 | 7.0 | 0.00 | 0.00 | 0.00 | 36 | 1011.7 |
| 20260504010050 | 77 | 207 | 1.0 | 1.0 | 0.00 | 0.00 | 0.00 | 35 | 1011.8 |
| 20260504004550 | 78 | 142 | 3.0 | 9.0 | 0.00 | 0.00 | 0.00 | 34 | 1011.8 |
| 20260504003051 | 78 | 132 | 2.0 | 9.0 | 0.00 | 0.00 | 0.00 | 35 | 1011.8 |
| 20260504001553 | 79 | 131 | 3.0 | 11.0 | 0.00 | 0.00 | 0.00 | 34 | 1011.9 |
| 20260504000129 | 80 | 0.0 | 0.0 | 0.00 | 0.00 | 0.00 | 34 | 1012.0 | |
| 20260503234556 | 80 | 132 | 3.0 | 10.0 | 0.00 | 0.00 | 0.00 | 33 | 1012.2 |
| 20260503233049 | 80 | 180 | 5.0 | 13.0 | 0.00 | 0.00 | 0.00 | 32 | 1012.2 |